Theta_e
301 301 300 301 302 302 302 302 302 303 303 303 303 303 304 304 304 299 294 298 294 290 293 296 295 289 291 293 290 293 294 295 291 289 289 289 288 291 290 292 292 290 289 289 289 286 287 305 306 297 300 302 307 306
300 300 300 300 301 302 301 302 302 302 302 303 302 302 304 304 305 302 293 301 299 292 292 296 297 298 295 296 295 294 292 293 295 290 290 291 288 288 287 285 296 289 294 292 294 292 299 305 304 305 307 306 305 304
300 301 301 301 300 301 301 302 302 302 302 303 302 302 304 304 305 302 295 298 296 290 291 289 292 296 298 300 300 293 293 294 293 295 294 293 292 294 289 291 293 297 301 295 296 299 302 306 308 309 308 306 307 305
300 301 301 301 300 300 301 302 302 301 302 303 302 303 303 303 304 303 295 298 295 292 287 289 298 295 299 301 298 299 297 294 293 293 291 291 292 295 291 294 293 297 299 296 296 300 304 307 307 308 307 307 306 306
300 300 300 300 300 300 301 301 301 301 302 302 302 303 304 304 304 302 297 298 295 291 286 287 292 295 298 298 298 296 295 292 289 289 289 289 291 291 290 294 291 298 298 294 294 301 301 303 307 309 306 306 306 304
300 300 301 300 300 300 300 301 301 301 301 303 303 303 303 304 304 297 293 297 297 295 288 283 290 293 296 295 295 294 293 290 288 287 287 289 292 291 287 288 296 301 302 303 301 306 306 308 310 311 307 306 307 306
299 300 300 300 300 300 299 301 299 300 302 303 303 304 304 304 297 293 291 295 300 293 288 284 285 292 294 292 292 291 291 290 288 285 285 287 288 290 287 285 296 301 304 305 308 308 304 307 306 311 311 310 309 308
299 299 300 300 300 300 299 300 300 301 301 302 302 303 303 304 301 294 295 300 297 291 289 283 284 287 292 288 287 290 288 288 288 287 287 286 288 286 282 289 294 299 300 302 304 308 308 308 311 308 312 310 308 308
299 299 300 300 300 300 300 299 299 300 301 301 303 303 297 294 291 294 303 299 295 292 280 283 282 282 291 289 290 290 288 284 287 285 285 287 284 283 286 288 292 295 294 297 301 309 310 310 310 308 308 308 308 308
299 299 299 300 299 299 300 300 301 300 301 303 297 292 288 293 302 299 294 290 290 289 287 283 286 284 288 287 288 287 287 284 282 285 288 284 283 288 290 292 293 295 296 300 301 300 302 304 307 307 308 307 307 304
299 299 299 299 299 299 300 301 301 301 300 295 291 292 295 300 292 290 285 284 285 283 285 286 288 284 290 285 286 289 286 286 281 286 285 282 282 291 299 297 296 294 295 294 299 304 305 306 305 308 306 305 305 304
299 299 299 299 299 300 300 301 301 295 294 294 295 296 294 290 286 284 280 284 283 283 285 284 287 288 289 289 286 286 281 281 281 286 285 283 294 298 300 300 300 300 296 295 297 302 305 309 310 309 306 305 304 302
299 299 299 299 300 300 300 301 301 301 299 298 294 289 285 283 274 280 279 281 281 287 288 288 288 290 289 288 285 285 283 277 285 280 281 290 296 299 299 299 300 302 302 303 304 308 307 309 310 308 306 307 307 304
300 300 299 300 300 300 300 301 301 299 294 289 287 278 281 280 281 282 283 285 290 291 289 288 286 286 285 285 286 284 285 286 279 277 283 288 292 296 298 298 297 298 301 301 303 308 308 308 308 309 309 309 305 304
300 300 300 300 300 300 300 299 300 295 291 286 286 277 281 285 288 288 291 289 292 294 290 287 286 286 284 284 284 283 282 281 282 282 285 288 289 292 294 295 296 298 299 299 301 305 306 306 307 307 308 307 305 304
300 299 296 300 300 301 301 298 295 294 289 287 287 284 285 285 286 289 289 289 294 290 289 287 281 277 280 282 282 282 281 280 283 285 287 288 288 289 290 293 294 297 297 298 300 303 306 306 306 307 309 308 306 305
298 290 299 301 301 301 301 293 291 288 285 286 284 287 285 285 286 288 290 290 291 288 281 280 278 279 281 280 282 283 282 284 286 287 287 288 288 288 290 292 294 295 295 296 299 302 307 306 307 307 307 308 307 306
290 293 300 301 298 297 293 292 288 286 284 285 281 283 285 287 287 288 290 294 290 287 286 281 283 278 275 279 279 283 285 286 287 287 287 288 288 289 291 291 293 294 294 295 298 302 307 304 303 305 307 308 306 305
293 296 301 300 296 291 288 288 289 281 283 283 284 285 286 287 290 290 291 292 290 290 286 281 281 275 277 281 283 284 284 284 284 286 286 288 289 290 293 295 294 293 293 293 295 297 304 308 306 305 305 306 304 303
301 300 300 300 297 290 288 285 289 284 282 284 285 285 286 286 288 289 290 290 288 286 283 280 279 280 280 285 286 290 291 291 290 289 290 291 293 293 295 292 291 292 292 293 295 295 302 308 308 307 307 306 304 303
295 295 298 294 292 291 289 286 284 284 283 282 286 286 286 286 285 287 287 289 288 284 283 286 287 287 288 291 293 293 293 293 291 290 291 291 294 295 295 297 294 293 292 292 294 299 303 307 309 309 304 304 305 304
291 299 292 294 290 291 288 289 285 286 284 285 285 286 284 283 284 286 288 286 284 287 286 287 289 291 292 292 293 294 294 294 294 294 293 294 293 294 295 295 292 292 292 294 297 303 309 310 310 307 304 303 301 301
297 295 291 293 289 285 284 290 285 286 283 284 285 282 281 282 285 289 283 284 287 288 288 292 293 293 292 293 293 293 294 294 293 295 295 295 295 296 296 295 294 293 294 298 303 308 307 301 301 304 303 302 301 299
296 290 287 285 284 278 286 280 283 283 285 282 282 283 283 281 287 284 282 282 285 288 290 291 291 288 289 291 293 296 301 302 301 298 297 296 295 296 298 296 297 300 300 309 307 305 305 304 300 303 303 301 299 298
277 279 278 271 282 282 282 282 284 283 283 285 284 281 280 281 279 277 277 282 287 288 289 289 288 289 289 292 298 301 303 302 299 295 297 298 296 298 298 300 304 309 309 305 305 305 303 304 303 302 301 300 298 298
277 283 275 282 281 279 279 280 281 282 284 283 283 286 287 284 282 280 284 286 286 287 286 286 287 289 291 297 299 299 301 304 303 301 302 305 305 304 303 303 303 304 307 306 305 304 303 304 302 300 298 295 292 297
278 282 285 287 287 286 279 283 285 279 279 278 282 285 284 282 280 284 287 289 286 287 289 292 293 296 298 298 300 302 304 304 302 301 304 304 306 305 304 302 303 305 307 307 306 305 303 302 301 300 298 298 298 297
286 286 280 284 285 285 284 282 283 283 283 286 286 282 281 280 280 284 287 289 289 291 293 298 299 298 296 296 297 298 302 304 305 305 305 304 304 303 303 302 302 293 304 306 305 305 304 302 301 300 299 298 297 297
286 288 288 285 287 286 283 283 282 285 288 287 284 283 282 285 287 288 289 290 292 293 296 296 296 298 298 297 297 296 296 299 300 297 296 296 297 299 301 301 300 301 303 299 290 299 304 303 303 302 300 299 297 297
288 291 288 287 286 284 284 286 285 287 287 286 286 287 287 288 289 292 291 291 291 293 296 297 297 296 294 294 294 295 295 296 296 296 294 293 294 299 300 302 301 301 302 300 299 298 292 300 297 301 299 298 296 295
289 287 285 286 285 286 287 288 288 288 286 285 286 284 285 287 288 291 290 291 293 294 294 295 295 296 294 293 292 293 292 294 295 295 297 298 299 300 300 301 301 302 304 304 303 303 301 302 302 300 298 297 294 294
288 287 285 284 285 289 291 287 287 286 285 285 284 286 285 285 283 285 290 292 292 291 289 292 293 293 294 295 294 292 287 291 292 293 293 294 296 298 299 299 300 301 300 301 304 304 304 302 300 299 297 295 295 295
287 287 287 287 286 285 287 286 286 286 285 285 285 284 283 283 281 284 289 292 291 291 290 290 291 292 293 293 293 293 291 292 288 286 287 286 287 289 295 297 297 297 297 297 297 299 299 298 297 297 296 295 295 294
Wind_Speed
10 8 9 11 11 9 8 8 7 7 6 6 5 6 6 6 5 1 4 4 4 2 5 3 2 2 4 2 2 4 3 4 4 4 3 4 3 3 2 3 4 6 6 4 3 2 7 7 4 9 8 1 5 3
9 9 9 8 9 10 8 8 6 6 7 7 5 6 7 6 6 2 3 1 3 3 5 2 6 12 8 7 3 2 3 0 2 5 1 2 2 2 3 3 4 2 6 5 8 8 4 1 4 2 4 6 4 4
9 11 11 10 8 8 9 9 6 5 8 7 5 7 6 6 5 3 3 3 0 1 5 2 6 5 5 6 4 3 2 3 1 2 3 2 3 3 3 4 1 1 2 3 3 2 1 3 3 4 3 4 4 4
11 11 8 8 7 7 8 9 6 3 5 5 5 7 5 7 7 7 2 2 1 1 2 6 3 2 2 6 3 3 4 3 4 3 2 2 3 2 4 3 2 3 2 1 1 2 4 5 2 5 4 6 8 7
8 10 7 8 6 6 8 7 4 6 6 5 5 6 6 9 10 5 2 2 1 2 2 5 8 3 1 6 7 4 5 3 2 2 2 2 1 3 1 2 2 2 4 3 5 3 2 5 2 3 7 6 8 9
7 9 8 5 6 6 7 7 6 4 6 8 5 6 7 10 11 1 2 1 2 2 1 3 4 3 2 6 7 5 3 3 3 3 2 1 1 3 2 3 2 3 2 3 2 1 2 3 1 3 4 7 7 8
8 8 10 6 6 5 4 5 1 3 6 6 6 7 9 9 1 2 3 3 4 2 1 3 4 3 4 4 2 3 3 2 3 1 0 1 1 3 3 4 5 5 6 4 3 4 2 1 4 5 4 6 7 5
8 8 9 7 5 3 2 2 0 5 7 7 9 11 10 10 3 4 2 2 3 3 2 0 4 1 1 2 1 1 3 3 3 2 1 1 2 3 3 7 5 5 4 3 4 4 5 3 2 4 3 9 7 8
9 8 8 6 4 3 3 1 3 6 8 10 10 11 3 1 1 2 1 5 2 3 2 1 2 3 2 2 2 2 2 2 2 1 2 3 1 4 8 8 7 10 6 7 7 6 6 6 5 2 5 8 10 7
8 7 7 6 3 0 1 2 4 7 9 9 3 2 2 2 4 4 5 3 3 2 2 2 1 2 2 2 1 2 1 2 2 4 2 2 4 5 7 8 6 5 5 6 6 4 6 8 5 9 12 8 9 10
10 8 6 6 3 1 1 4 4 8 3 2 2 1 2 7 2 2 0 1 1 1 2 3 4 1 1 3 3 1 2 1 2 3 4 2 2 4 9 10 6 8 7 5 6 7 10 17 19 14 8 6 8 10
10 9 7 5 2 1 2 4 5 3 1 1 2 3 3 2 3 1 2 2 3 4 2 4 4 4 0 2 3 2 3 3 3 0 2 1 1 7 9 10 12 12 4 7 7 9 12 15 12 10 9 7 7 8
12 10 8 6 4 2 2 3 4 4 3 1 2 2 2 2 5 2 2 2 2 2 2 2 2 1 3 4 3 2 2 4 1 3 2 1 4 7 8 9 9 12 16 11 4 4 3 6 7 8 9 6 7 10
13 11 9 7 5 2 1 3 3 3 1 1 1 4 1 1 2 3 2 3 2 2 3 3 3 2 1 3 1 2 1 2 2 1 3 2 2 5 6 6 8 13 14 14 13 7 2 7 8 7 9 11 8 9
12 11 10 7 6 4 2 1 3 2 1 1 1 1 1 2 2 3 1 2 3 3 2 2 4 3 3 3 2 2 0 2 3 4 3 2 2 2 5 7 9 11 11 10 10 8 3 3 7 7 6 9 10 10
11 7 4 7 7 5 2 3 3 2 2 1 1 2 3 1 4 4 4 2 2 1 0 4 3 4 1 2 2 4 2 4 3 3 2 1 3 5 5 5 4 4 5 7 7 8 2 4 6 6 8 10 8 13
8 1 9 10 7 4 3 2 2 1 0 2 3 2 2 3 4 3 2 1 1 2 2 3 3 4 1 1 2 4 4 3 3 1 2 2 4 5 5 5 7 5 4 6 6 7 3 4 7 11 11 7 11 9
2 1 12 12 6 3 2 1 1 1 2 3 1 4 2 3 2 2 1 1 2 2 3 2 4 2 4 3 3 2 1 2 4 4 4 4 5 5 4 6 7 6 5 5 5 5 1 5 5 6 6 9 11 10
2 5 13 7 3 3 2 1 2 1 4 2 3 2 2 3 3 0 2 2 2 2 4 3 2 2 4 4 4 3 3 3 3 3 4 6 7 7 5 6 6 5 5 4 4 2 3 4 4 6 5 6 8 6
12 11 8 5 3 2 0 2 2 1 3 3 2 3 3 2 2 1 2 1 2 2 2 1 4 3 3 3 3 7 8 9 9 10 10 6 5 6 7 6 5 5 4 3 4 4 3 3 7 6 6 5 7 7
6 2 4 4 2 1 1 1 2 3 3 2 3 2 3 2 2 1 1 1 3 1 2 1 3 5 6 8 8 9 11 10 11 10 10 8 6 5 7 5 5 3 3 3 3 5 7 8 10 8 8 7 7 8
1 3 1 1 1 1 1 2 2 2 1 2 3 2 3 3 3 1 0 3 2 1 2 3 6 9 11 13 11 13 14 15 14 11 13 10 8 8 8 6 4 4 4 5 4 5 6 9 10 10 8 8 9 9
4 1 1 1 1 2 4 2 1 1 1 3 2 3 2 2 3 1 3 1 1 2 2 6 10 13 14 17 18 19 17 16 13 13 11 10 10 9 7 5 5 5 5 7 7 6 8 10 10 11 11 11 10 9
2 2 2 1 1 3 3 3 2 2 2 2 3 3 3 2 3 4 2 2 3 4 6 11 10 10 12 15 11 10 3 5 4 6 9 10 9 8 8 6 6 6 7 7 10 11 11 10 14 11 12 13 10 10
5 4 4 4 2 3 2 4 4 3 2 4 3 3 3 2 3 3 2 4 6 8 9 10 10 10 11 12 8 5 9 5 5 8 7 8 7 5 5 6 6 7 9 11 12 12 12 12 10 12 12 12 12 11
2 1 3 2 2 3 1 2 3 2 2 2 3 3 1 3 3 3 3 5 4 8 10 10 12 12 13 10 7 9 8 6 8 9 6 5 6 8 9 9 10 9 9 12 13 16 15 13 13 15 13 12 12 12
1 1 1 1 1 2 3 2 1 2 2 2 3 4 3 3 3 3 4 3 4 7 12 12 10 6 7 9 9 10 9 10 9 7 8 8 10 9 9 10 14 11 11 13 13 16 16 14 14 13 11 9 9 10
0 2 4 3 1 1 2 2 2 2 3 3 2 6 3 3 2 3 3 7 9 11 12 8 7 7 7 7 8 9 9 9 14 14 13 12 11 10 12 11 9 10 5 9 11 12 13 12 12 13 12 11 8 6
2 1 2 1 2 2 1 1 0 2 3 1 3 2 2 1 2 3 4 7 9 8 7 8 9 8 8 10 12 11 11 8 13 19 19 12 9 9 7 8 8 7 8 8 10 10 14 12 12 11 11 9 8 7
4 4 1 1 2 3 3 1 2 3 3 3 4 3 2 1 2 3 5 5 7 9 9 8 8 11 10 10 11 14 12 11 10 10 11 9 5 5 8 9 8 6 6 8 9 10 13 14 12 11 10 9 8 8
5 4 1 3 2 1 1 2 3 4 3 4 3 3 2 1 2 2 4 5 5 6 9 10 10 11 12 12 11 12 12 11 12 14 10 8 9 10 9 8 6 5 7 9 9 9 10 9 10 11 11 11 10 9
2 3 4 3 1 0 1 2 2 2 2 2 2 2 1 2 3 4 4 4 5 8 8 7 6 7 7 5 6 5 5 4 8 9 12 8 8 8 8 7 7 8 9 9 8 8 9 10 9 10 10 11 10 10
4 3 4 3 2 1 1 2 1 2 2 1 1 1 2 2 2 3 2 2 2 3 4 4 4 4 6 6 6 5 5 5 7 8 10 10 10 8 7 6 7 8 10 9 8 7 8 11 9 9 9 9 9 9
Wind_Direction
293 296 280 296 293 301 295 298 285 290 293 286 296 309 309 304 300 45 259 201 172 240 277 268 2 22 338 48 85 298 25 333 42 74 122 194 147 235 126 218 175 161 144 196 91 117 280 203 96 159 203 132 169 199
293 298 301 296 303 306 311 302 250 270 297 295 276 295 308 316 311 71 281 221 149 199 250 268 248 243 199 231 158 12 169 329 175 94 150 115 112 52 144 233 341 248 177 188 172 211 245 301 179 107 127 146 190 165
287 285 287 270 284 295 298 310 238 265 309 285 274 293 307 336 354 360 260 278 318 281 294 357 241 266 169 197 175 124 297 198 44 176 150 151 116 132 160 241 283 236 30 196 112 356 174 118 62 117 106 126 134 109
296 307 281 288 277 296 309 306 209 233 323 252 271 289 313 332 341 336 258 259 184 271 263 280 315 255 162 143 130 135 140 63 104 80 98 121 128 144 194 190 177 207 22 160 321 13 38 353 354 132 93 93 95 101
297 305 300 303 264 292 305 285 262 265 320 293 264 300 331 336 331 313 224 264 228 180 245 282 310 312 127 129 112 98 91 76 54 59 73 177 187 97 344 70 269 190 179 152 215 202 175 240 262 90 125 149 148 134
306 311 313 293 264 283 305 315 247 279 309 316 277 300 323 326 336 99 244 235 336 76 107 305 301 263 103 103 110 106 91 90 79 123 218 283 284 108 122 204 268 227 236 189 129 108 212 270 157 105 148 160 154 148
298 306 315 300 309 239 294 316 262 290 304 326 321 312 306 302 12 205 208 247 356 67 95 309 325 314 140 92 40 76 42 78 106 127 9 161 298 83 121 184 223 202 176 178 152 121 346 174 189 195 160 169 124 135
284 292 304 305 298 250 263 305 138 324 323 317 312 309 303 298 269 298 282 255 135 97 82 117 275 358 151 100 94 28 85 36 0 160 24 153 10 48 247 245 245 215 219 203 178 191 138 239 28 17 149 121 161 174
272 276 294 304 291 228 215 274 315 304 305 310 310 304 335 38 180 247 258 75 71 119 151 82 174 209 357 103 100 36 90 90 299 152 253 98 46 224 226 226 234 235 189 226 167 146 118 91 359 279 189 151 182 184
260 267 279 293 289 257 27 291 285 307 315 317 346 25 344 273 296 22 12 28 12 339 54 220 229 263 95 54 47 92 25 152 153 241 105 127 250 273 272 242 232 239 194 141 111 129 123 98 23 255 234 177 173 161
241 253 261 279 310 226 342 340 328 325 345 28 29 320 295 319 52 40 28 138 193 264 205 235 202 201 324 126 168 158 162 145 96 260 140 205 281 313 359 23 347 243 233 213 207 196 185 174 190 197 191 178 169 163
227 230 241 251 271 319 303 316 342 28 53 212 312 309 318 19 33 84 260 291 196 232 199 168 218 196 282 104 100 35 133 41 199 219 117 85 322 341 7 8 2 2 278 204 219 210 208 213 213 186 162 158 153 134
213 215 219 222 221 256 327 305 282 291 337 92 211 269 77 294 34 214 200 247 266 300 189 151 52 30 13 36 67 74 103 217 54 56 106 69 333 353 360 10 4 15 26 14 272 232 211 172 133 150 149 151 145 146
199 205 203 205 204 210 301 309 320 353 71 111 327 338 120 290 288 231 216 229 269 327 39 75 75 86 300 58 81 94 288 96 45 82 160 163 284 328 357 6 10 21 21 12 0 330 173 138 142 146 176 164 145 145
186 192 188 192 192 197 200 331 6 42 66 82 37 343 297 286 269 283 106 46 355 345 24 52 50 67 23 88 26 57 11 245 208 190 186 226 302 11 26 7 3 9 13 2 350 350 36 146 136 124 153 142 132 130
158 142 181 181 180 183 146 16 18 37 23 20 240 314 288 31 3 20 336 349 210 161 14 48 76 50 360 117 118 201 179 228 191 177 219 317 348 349 353 347 341 356 357 343 345 347 45 120 118 99 104 121 127 139
115 188 183 170 162 154 117 45 24 41 95 300 275 260 227 247 238 237 237 254 134 87 115 103 89 206 69 46 240 190 207 162 166 201 219 259 305 320 322 318 319 332 335 328 332 342 128 140 124 110 104 105 114 104
66 299 153 141 118 100 9 42 20 70 284 256 256 278 225 233 243 262 265 251 80 107 123 190 139 102 180 193 246 228 167 204 206 218 227 238 253 263 267 288 293 305 317 315 327 326 103 132 138 136 132 99 95 98
148 121 126 120 131 107 115 293 119 266 254 250 259 265 250 249 247 188 111 48 76 95 93 48 106 200 234 226 239 261 252 227 256 248 220 219 225 236 239 263 268 280 285 289 308 306 291 166 142 135 120 73 97 135
116 100 65 47 64 73 88 291 131 209 273 263 309 304 282 258 291 109 132 80 67 70 49 146 212 228 210 256 231 276 281 280 281 282 278 266 219 226 236 227 239 241 259 276 272 252 228 168 138 142 150 135 130 135
69 319 24 36 353 71 198 307 282 216 298 340 274 334 305 349 15 29 70 208 72 77 304 289 283 273 245 269 262 257 257 246 244 246 252 257 236 210 236 222 217 215 190 247 263 259 199 174 153 146 140 144 136 120
191 130 9 288 324 283 262 234 203 283 40 266 345 349 29 10 344 20 355 64 75 201 223 253 282 290 288 282 275 265 263 257 245 238 231 223 218 217 221 213 209 219 205 221 234 253 166 151 144 138 130 127 116 118
114 36 335 318 302 19 271 74 339 248 325 310 6 39 346 328 266 341 66 97 217 256 277 297 294 293 290 289 282 274 262 252 242 226 211 204 204 209 215 210 189 186 208 233 221 153 128 131 131 130 126 120 115 109
9 35 355 343 89 272 343 336 326 337 318 17 36 346 315 261 334 46 42 337 295 305 316 315 314 310 304 308 296 291 298 252 257 173 172 170 183 196 198 195 194 201 223 171 137 128 126 125 119 125 125 120 119 121
70 333 84 329 273 358 335 1 345 29 36 27 344 323 285 48 54 35 337 298 331 329 318 318 311 307 302 297 300 350 350 2 81 118 132 146 151 160 186 217 206 165 132 127 131 127 123 112 120 123 119 121 121 123
66 353 101 2 333 80 310 11 5 357 201 247 252 289 35 77 50 352 332 328 318 320 313 305 305 315 311 319 12 12 17 42 69 75 91 130 135 115 104 119 121 112 126 121 127 126 124 123 125 117 114 116 118 118
137 131 98 321 322 314 352 300 274 84 24 351 318 353 34 58 20 334 334 352 310 307 295 302 302 324 4 4 6 17 32 45 57 64 68 63 78 78 79 90 102 108 104 111 122 130 129 127 124 121 118 114 122 129
295 118 145 175 121 316 318 296 25 18 328 315 45 30 53 24 351 335 307 317 310 299 307 329 14 22 27 19 16 15 25 55 71 71 64 59 65 60 72 85 82 83 105 125 123 117 118 120 124 126 124 123 121 125
104 123 118 136 242 209 269 41 285 310 319 30 84 79 84 47 336 302 300 304 304 304 353 12 10 8 37 47 42 35 29 32 71 73 74 69 51 24 43 72 83 92 104 85 62 98 115 122 125 121 119 117 110 102
147 195 160 207 24 36 334 40 12 357 32 76 94 97 82 19 289 291 313 331 337 348 5 29 22 24 30 47 57 50 32 30 31 49 61 49 17 16 51 62 64 65 78 82 97 105 99 101 99 101 106 110 115 121
130 172 85 57 79 340 138 124 50 45 43 46 55 85 96 217 309 322 352 347 354 12 24 31 28 22 36 37 36 51 46 17 24 35 39 44 38 41 46 47 50 69 90 107 118 115 122 125 131 132 131 131 127 129
106 111 123 104 90 242 140 84 76 74 37 62 21 98 111 67 30 330 344 353 23 42 26 20 26 26 17 27 43 54 59 39 33 30 36 39 39 35 35 32 40 59 66 73 87 104 113 120 125 129 127 132 139 144
63 65 84 104 103 155 272 78 75 93 65 70 89 153 63 93 91 278 302 349 2 354 357 350 341 6 30 40 43 36 33 41 40 34 39 42 41 37 42 45 53 56 61 64 64 78 94 109 113 119 124 134 141 147